Regional Weather Roundup
Issued by NWS

Home | Current Version | Previous Version | Graphics & Text | Print | Product List | Glossary On
Versions: 1 2 3 4 5 6 7 8 9 10 11 12 13 14 15 16 17 18 19 20 21 22 23 24 25 26 27 28 29 30 31 32 33 34 35 36 37 38 39 40 41 42 43 44 45 46 47 48 49 50
000
ASUS43 KLOT 161900
RWRIL

ILLINOIS REGIONAL WEATHER ROUNDUP
NATIONAL WEATHER SERVICE CHICAGO/ROMEOVILLE IL
200 PM CDT TUE SEP 16 2014

NOTE: "FAIR" INDICATES FEW OR NO CLOUDS BELOW 12,000 FEET WITH NO
SIGNIFICANT WEATHER AND/OR OBSTRUCTIONS TO VISIBILITY.

* THESE STATIONS ARE NOT UNDER NWS QUALITY CONTROL. THEY ALSO MAY NOT
  REPORT WEATHER SUCH AS PRECIPITATION OR FOG.

ILZ001-002-007-009-015-016-024-162000-
NORTHWEST ILLINOIS

CITY           SKY/WX    TMP DP  RH WIND       PRES   REMARKS
MOLINE         SUNNY     66  43  43 W6        30.17F
STERLING*      SUNNY     66  45  45 NW7       30.17F
$$

ILZ003-004-008-010-011-017-018-162000-
NORTH CENTRAL ILLINOIS

CITY           SKY/WX    TMP DP  RH WIND       PRES   REMARKS
ROCKFORD       MOSUNNY   65  40  39 NW7       30.18F
FREEPORT*      SUNNY     63  42  46 W7        30.19F
ROCHELLE*      SUNNY     64  40  42 W7        30.17F
$$

ILZ005-006-012>014-019>023-162000-
NORTHEAST ILLINOIS

CITY           SKY/WX    TMP DP  RH WIND       PRES   REMARKS
CHICAGO-OHARE  MOSUNNY   64  39  39 W10       30.14F
CHICAGO-MIDWAY MOSUNNY   67  43  41 CALM      30.15F
AURORA         SUNNY     65  40  39 W9        30.16F
LANSING*       MOSUNNY   64  44  47 CALM      30.16F
WAUKEGAN       SUNNY     63  42  46 VRB5      30.14F
DUPAGE AIRPORT SUNNY     66  41  40 SW6       30.15F
WHEELING       SUNNY     65  41  41 S5        30.16F
NORTHERLY ISL    N/A     61  50  67 NE6         N/A
$$

LMZ740>746-162000-
SOUTHERN LAKE MICHIGAN

STATION/POSITION SKY/WX   TEMP    WIND        PRES    VSBY  WAVE
                          AIR SEA DIR/SP/G                  HT/PER
                          (F)     (DEG/KT/KT) (MB)    (MI)  (FT/S)
SOUTHERN BUOY              58 64  280/  6/ 10 1022.0F         2/ 4
WAUKEGAN HARBOR            59     100/  5/  7   N/A
HARRISON CRIB              58      30/  7/  8   N/A
BURNHAM HARBOR             61      60/  5/  7   N/A
CALUMET HARBOR             59      50/  7/  9 1020.3F
MICHIGAN CITY              60     280/  9/ 10   N/A
MICHIGAN CITY 6N           60 65  300/  6/ 12   N/A           2/ 4
ST. JOSEPH                 60 67  320/  8/ 10   N/A           2/ 4
$$

ILZ025>027-034>036-040-047-049-050-058-095>099-162000-
WEST-CENTRAL ILLINOIS

CITY           SKY/WX    TMP DP  RH WIND       PRES   REMARKS
QUINCY         SUNNY     65  46  50 VRB3      30.17F
GALESBURG*     SUNNY     71  47  41 CALM      30.18F
MACOMB*        SUNNY     64  44  47 CALM      30.20F
$$

ILZ028>032-037-038-041>044-048-051>054-059>061-162000-
CENTRAL ILLINOIS

CITY           SKY/WX    TMP DP  RH WIND       PRES   REMARKS
DECATUR        MOSUNNY   65  50  58 NW3       30.18F
PEORIA         SUNNY     67  45  45 CALM      30.18F
SPRINGFIELD    MOSUNNY   64  50  60 NE3       30.18F
TAYLORVILLE    NOT AVBL
$$

ILZ033-039-045-046-055>057-062-063-162000-
EAST-CENTRAL ILLINOIS

CITY           SKY/WX    TMP DP  RH WIND       PRES   REMARKS
CHAMPAIGN      PTSUNNY   66  48  52 E5        30.17F
MATTOON        PTSUNNY   64  52  64 CALM      30.17F
$$

ILZ079-100>102-162000-
SOUTHWEST ILLINOIS

CITY           SKY/WX    TMP DP  RH WIND       PRES   REMARKS
BELLEVILLE     CLOUDY    64  53  67 VRB3      30.17F
CAHOKIA*       CLOUDY    66  54  65 NE5       30.18F
SPARTA*        CLOUDY    63  53  70 CALM      30.19F
$$

ILZ064>066-069>071-074>076-080>082-084>086-088>090-092>094-162000-
SOUTH-CENTRAL ILLINOIS

CITY           SKY/WX    TMP DP  RH WIND       PRES   REMARKS
CARBONDALE     CLOUDY    62  52  69 N7        30.17F
MARION         CLOUDY    64  54  68 N7        30.17F
MT. VERNON     CLOUDY    61  52  72 NE6       30.18F
SALEM*         CLOUDY    64  55  72 NE5       30.18F
$$

ILZ067-068-072-073-078-083-087-091-162000-
SOUTHEAST ILLINOIS

CITY           SKY/WX    TMP DP  RH WIND       PRES   REMARKS
LAWRENCEVILLE  CLOUDY    63  53  70 N9        30.18F
HARRISBURG*    CLOUDY    62  54  73 NE8       30.17F
ROBINSON*      CLOUDY    64  55  72 CALM      30.19F
$$

ABBREVIATIONS USED IN REMARKS
   TC - TEMPERATURE IN CELSIUS
  WCI - WIND CHILL INDEX
   HX - HEAT INDEX
  VSB - VISIBILITY
$$



USA.gov is the U.S. government's official web portal to all federal, state and local government web resources and services.